Home > Weather > Shanghai > Past weeks

Flag for China Past Weather in Shanghai, Shanghai Municipality, China — Yesterday and Last 2 Weeks

Now
73 °F

Passing clouds.


Feels Like: 75 °F
Forecast: 69 / 76 °F
Wind: 10 mph from Southeast

Location: Shanghai Hongqiao Airport

Current Time: Jun 26, 2016 at 9:03:16 AM

Latest Report: Jun 26, 2016 at 8:30 AM


Visibility: N/A

Pressure: 29.89 "Hg

Humidity: 74%

Dew Point: 64 °F

Location of ShanghaiLocation

Past Weather in Shanghai — Graph

°F

Shanghai Temperature Yesterday

Maximum temperature yesterday: 73 °F (at 12:00 AM)
Minimum temperature yesterday: 68 °F (at 10:00 AM)
Average temperature yesterday: 70 °F

High & Low Weather Summary for the Past Weeks

 TemperatureHumidityPressure
High95 °F (Jun 23, 3:30 PM)100% (Jun 12, 5:00 AM)29.92 "Hg (Jun 12, 5:00 AM)
Low68 °F (Jun 17, 4:30 AM)49% (Jun 14, 12:30 PM)29.50 "Hg (Jun 15, 2:00 AM)
Average79 °F82%29.68 "Hg
* Reported Jun 11 8:00 AM — Jun 26 8:00 AM, Shanghai, Weather by CustomWeather, © 2016

Note: Actual official high and low records may vary slightly from our data, if they occured in-between our weather recording intervals... More about our weather records

Advertising

Shanghai Weather History for the Previous 24 Hours

Scroll right to see more
 ConditionsComfort  
Time TempWeatherWind HumidityBarometerVisibility
8:00 AM
Sun, Jun 26
75 °FPassing clouds.10 mph69%29.89 "HgN/A
7:30 AM72 °FPassing clouds.8 mph83%29.89 "HgN/A
7:00 AM72 °FPassing clouds.8 mph83%29.89 "Hg5 mi
6:30 AM70 °FPassing clouds.3 mph94%29.89 "Hg4 mi
6:00 AM70 °FFog.3 mph94%29.89 "Hg2 mi
5:30 AM70 °FFog.3 mph94%29.89 "Hg2 mi
5:00 AM68 °FFog.3 mph94%29.86 "Hg2 mi
4:30 AM68 °FFog.3 mph100%29.86 "Hg2 mi
4:00 AM68 °FFog.3 mph94%29.86 "Hg2 mi
3:30 AM68 °FFog.3 mph100%29.86 "Hg2 mi
3:00 AM68 °FFog.1 mph100%29.86 "Hg2 mi
2:30 AM68 °FClear.No wind100%29.89 "Hg4 mi
2:00 AM68 °FClear.1 mph94%29.89 "Hg4 mi
1:30 AM70 °FClear.1 mph94%29.89 "Hg4 mi
1:00 AM68 °FPassing clouds.3 mph100%29.89 "Hg4 mi
12:30 AM70 °FPassing clouds.No wind94%29.89 "Hg4 mi
12:00 AM70 °FPassing clouds.1 mph94%29.89 "Hg4 mi
11:30 PM
Sat, Jun 25
70 °FClear.1 mph94%29.92 "Hg4 mi
11:00 PM70 °FClear.3 mph94%29.92 "Hg4 mi
10:30 PM70 °FClear.6 mph94%29.92 "Hg4 mi
10:00 PM70 °FClear.3 mph94%29.92 "Hg10 mi
9:30 PM70 °FClear.6 mph94%29.92 "Hg10 mi
9:00 PM70 °FClear.3 mph94%29.89 "Hg10 mi
8:30 PM70 °FPassing clouds.3 mph94%29.89 "HgN/A
8:00 PM70 °FPassing clouds.3 mph94%29.89 "HgN/A
7:30 PM70 °FClear.6 mph94%29.86 "Hg10 mi
7:00 PM70 °FScattered clouds.6 mph94%29.89 "Hg5 mi
6:30 PM70 °FScattered clouds.6 mph94%29.86 "Hg5 mi
6:00 PM72 °FPartly sunny.8 mph88%29.86 "Hg5 mi
5:30 PM72 °FPartly sunny.6 mph88%29.86 "Hg5 mi
5:00 PM70 °FPartly sunny.6 mph94%29.86 "Hg5 mi
4:30 PM70 °FPartly sunny.6 mph94%29.86 "Hg4 mi
4:00 PM70 °FPartly sunny.6 mph94%29.86 "Hg4 mi
3:30 PM70 °FPartly sunny.6 mph94%29.86 "Hg4 mi
3:00 PM70 °FPartly sunny.6 mph94%29.86 "Hg4 mi
2:30 PM70 °FSprinkles. Partly sunny.6 mph94%29.86 "Hg4 mi
2:00 PM70 °FSprinkles. Partly sunny.8 mph100%29.86 "Hg4 mi
1:30 PM70 °FSprinkles. Partly sunny.6 mph94%29.86 "Hg4 mi
1:00 PM70 °FSprinkles. Partly sunny.6 mph100%29.86 "Hg4 mi
12:30 PM70 °FSprinkles. Partly sunny.8 mph94%29.86 "Hg4 mi
12:00 PM70 °FSprinkles. Partly sunny.6 mph94%29.86 "Hg5 mi
11:30 AM70 °FSprinkles. Scattered clouds.8 mph94%29.86 "Hg4 mi
11:00 AM68 °FRain showers. Scattered clouds.8 mph100%29.86 "Hg4 mi
10:30 AM68 °FRain showers. Partly sunny.8 mph94%29.89 "Hg4 mi
10:00 AM68 °FSprinkles. Passing clouds.8 mph94%29.86 "Hg5 mi
9:30 AM70 °FSprinkles. Partly sunny.8 mph94%29.86 "Hg4 mi
9:00 AM70 °FSprinkles. Fog.3 mph94%29.83 "Hg3 mi
Weather by CustomWeather, © 2016

See weather overviewHow to use our weather pages